Погода Молыгино

Погода Молыгино : погода сейчас, прогноз погоды и архив. Всё, что Вы хотите узнать о погоде Молыгино!

Поиск расширенной информации на нашем сайте:

Другие новости

Новости СМИ2

Главная страница сайта

Новости сайта

03.07.2017

Напоминаем, что на нашем специализированном сайте Метеоцентр.Азия вы можете получить высокодетализированные автоматические прогнозы погоды по пунктам России, СНГ и мира в авиационном формате (включающие направление и скорость ветра, видимость, явления погоды, количество и форму облачности, нижнюю и верхнюю границу облачности).


Погода Молыгино - сегодня

Время (UTC), дата Ветер
(°,м/с) 
Видим.   Явления Облачность Т
(°С)
Тd
(°С)
f(%) Тe
(°С)
Pmin
(гПа)
dP
(гПа)
Po
(мм)
O2
(г/м3)
Тmin Tmax R s Состояние
почвы
15 18.06.18 120 (ЮВ) н/о    н/о 
+19.8 +8.8 49 +21  1008.7  -0.5  742  277           
18 18.06.18 080 (В) н/о    н/о 
+15 +9.6 70 +17  1007.7  -1.3  741  281           
21 18.06.18 100 (В) н/о    н/о 
+16.3 +9 62 +17  1006.4  -1.2  740  280           
00 19.06.18 060 (СВ) н/о    н/о 
+20.9 +10.8 52 +23  1005.2  -0.9  739  275  +13.2         
03 19.06.18 130 (ЮВ) н/о    н/о 
+25.6 +7.9 32 +26  1002.7  -2.1  737  270           
06 19.06.18 140 (ЮВ) н/о    н/о 
+29 +9.5 30 +30  1001.3  -1.2  737  267           
09 19.06.18 160 (Ю) н/о    н/о 
+29.9 +10.4 30 +32  1000.4  -0.8  736  265           
12 19.06.18 170 (Ю) н/о    н/о 
+27.1 +11.2 37 +30  1000.4  -0.2  736  268    +30.7       
15 19.06.18 100 (В) н/о    н/о 
+20.2 +14 68 +28  1000.3  -0.5  735  273           
18 19.06.18 тихо ()   н/о    н/о 
+15.3 +14 92 +23  999.9  -0.7  735  278           
21 19.06.18 060 (СВ) н/о    н/о 
+13 +12.1 94 +19  999.8  -0.3  735  280           
00 20.06.18 тихо ()   н/о    н/о 
+17.4 +15.2 87 +27  1000.7  1.2  736  275  +13         
03 20.06.18 250 (З) н/о    н/о 
+22.9 +16.6 68 +35  1001.2  0.9  736  270           
06 20.06.18 260 (З) н/о    н/о 
+25.3 +14.7 52 +34  1002.3  1.3  737  269           
09 20.06.18 260 (З) н/о    н/о 
+25.6 +14.2 49 +33  1002.8  0.4  738  269           
12 20.06.18 260 (З) н/о    н/о 
+24.1 +11.7 46 +28  1003.2  0.3  738  271    +26       
15 20.06.18 тихо ()   н/о    н/о 
+17.6 +11.9 69 +22  1004.4  0.8  738  277           
18 20.06.18 100 (В) н/о    н/о 
+12.4 +11 91 +17  1005.2  0.4  739  283           
21 20.06.18 070 (В) н/о    н/о 
+9.8 +9 95 +11  1005.7  0.3  739  286           
00 21.06.18 210 (ЮЗ) н/о    н/о 
+13.6 +12.4 92 +20  1007.6  2.1  740  282  +9.5    0.5     
03 21.06.18 210 (ЮЗ) н/о    н/о 
+17.7 +13.8 78 +26  1006.3  -0.9  740  277           
06 21.06.18 260 (З) н/о    н/о 
+22.9 +13.7 56 +30  1004.9  -1.1  739  272           
09 21.06.18 230 (ЮЗ) н/о    н/о 
+24.2 +11.6 45 +28  1003.4  -1.4  738  271           
12 21.06.18 090 (В) 1{17}  н/о    н/о 
+15.8 +14.5 92 +25  1005.7  1.7  739  279    +24.9     
15 21.06.18 тихо ()   н/о    н/о 
+13.8 +12.9 94 +19  1006.4  0.5  740  281           
Время (UTC), дата Ветер
(°,м/с) 
Видим.   Явления Облачность Т
(°С)
Тd
(°С)
f(%) Тe
(°С)
Pmin
(гПа)
dP
(гПа)
Po
(мм)
O2
(г/м3)
Тmin Tmax R s Состояние
почвы

Для получения пояснительной информации подведите курсор к названию столбца.

ПОГОДА Молыгино - архив

Всё, что Вы хотите узнать о погоде Молыгино - удобно и подробно!

Выберите нужную дату (начиная с 1 января 2015* года) и нажмите кнопку "Найти".
Будут отображены архивные сводки погоды по пункту Молыгино, начиная с указанной даты.


Отображать данные в формате CSV (для использования в таблицах Excel)


Внимание! Наш архив погоды предназначен исключительно для личного некоммерческого использования в познавательных целях. Если Вам необходимы официальные справки о состоянии погоды (для производственных, юридических, коммерческих и т.п. целей), обращайтесь в органы Росгидромета.

*Примечание: данная дата относится к архиву по метеостанциям СССР (Россия, СНГ, Балтия).
Архив по метеостанциям Зарубежной Европы и Азии (кроме Китая) хранится 10 дней, по другим регионам земного шара (Китай, Африка, Америка, Австралия, Океания) - 1 день.

Молыгино - район местоположения метеостанции


Название, широта, долгота, высота метеостанции:
Молыгино 58.2°ш. 94.8°д. 161 м над ур. моря [Российская Федерация]

Дополнительная информация

В oтличие oт бoльшинства пoгoдных сайтoв мы публикуем пoдрoбную метеoинфoрмацию в детальнoм прoфессиoнальнoм фoрмате.

Характеристики температуры и влажнoсти вoздуха измеряются на высoте 2 м в тени вдали oт зданий и деревьев.
Скoрoсть ветра измеряется на высoте 10 м (на урoвне рoста челoвека скoрoсть ветра ниже в 1.5-2 раза). Если метеoстанция нахoдится в гoрoде или в лесу, тo скoрoсть ветра занижена на 2-4 м/с пo сравнению с oткрытым местoм. Скoрoсть ветра над акватoриями крупных рек и oзёр, а также на вершинах хoлмoв на 2-5 м/с выше, чем в oбычных услoвиях.
Атмoсфернoе давление в разных тoчках местнoсти мoжет значительнo oтличаться oт давления на метеoстанции, в зависимoсти oт услoвий рельефа (при пoдъёме на 10 м давление пoнижается примернo на 1 мм рт.ст.).